Theta_e
343 341 335 332 332 333 332 337 342 342 343 343 343 344 344 343 343 343 343 343 342 339 337 337 337 333 328 325 327 335 336 337 337 337 337 337 338 337 338 338 339 339 340 340 340 341 340 340 340 340 338 333 329 327 323 321 320 324 329 332 334 335 337 338 339 339 340 341 340 338 333 332 332 333 335 336 337 338 338 334 330 330 332 336 340
342 342 338 332 332 333 331 334 339 342 342 343 343 343 344 343 343 343 342 342 341 339 339 339 337 334 331 328 326 333 336 336 336 337 336 335 336 336 337 337 338 338 338 340 340 339 339 340 340 339 336 332 330 329 326 323 320 320 323 327 330 332 334 335 337 338 339 340 340 338 334 333 332 333 333 335 336 337 334 329 324 324 324 327 333
341 343 340 333 332 332 331 331 337 342 340 342 342 342 343 343 343 342 341 341 341 340 340 337 335 334 335 334 328 331 336 336 336 337 336 335 336 336 337 337 338 338 338 339 338 339 339 340 340 338 334 332 331 330 329 327 324 322 321 322 324 326 329 332 335 337 339 340 340 338 336 334 334 333 334 334 333 332 328 324 323 324 326 322 323
340 343 341 335 332 332 332 330 334 341 340 341 341 341 342 341 342 342 341 340 342 341 339 336 335 336 336 336 333 332 334 335 335 336 336 336 335 336 335 335 337 339 339 338 338 338 339 339 339 337 333 332 330 329 329 328 326 325 325 324 323 323 324 327 332 337 339 340 339 338 338 337 335 333 331 331 329 327 324 324 326 327 329 326 321
337 341 342 335 331 332 332 332 334 339 339 339 339 340 340 340 341 341 341 340 341 340 338 336 336 337 336 337 336 335 335 335 335 335 335 335 335 334 333 335 337 338 338 338 338 339 338 338 337 335 333 332 329 329 328 327 327 324 324 326 327 325 323 323 327 334 336 335 335 336 339 339 337 333 330 329 327 325 324 325 330 330 328 328 325
336 340 342 336 332 332 332 333 334 337 338 338 339 339 338 339 340 340 340 339 339 339 337 335 336 337 337 338 337 337 337 337 337 336 335 335 335 334 333 335 337 337 338 339 338 338 337 337 335 334 333 331 329 328 328 329 328 321 317 320 325 327 327 324 323 328 330 331 333 336 339 339 338 336 336 334 332 330 329 328 329 330 326 327 326
337 340 342 337 332 332 332 333 334 335 338 338 338 337 338 338 339 339 338 339 339 338 336 335 336 337 338 339 338 338 337 337 337 337 337 336 335 334 333 335 337 337 338 338 338 338 337 335 334 333 332 331 329 329 330 330 326 315 310 312 317 322 326 327 325 326 329 332 334 338 340 339 337 337 338 338 337 336 336 334 331 328 325 325 326
337 342 342 337 333 332 333 333 334 335 336 337 337 337 337 338 338 338 337 338 338 337 335 335 336 338 339 339 339 338 338 338 337 337 337 336 334 333 334 335 336 337 338 338 338 337 336 334 332 331 331 331 330 330 331 326 316 306 304 305 309 313 318 324 325 326 328 331 333 336 338 338 337 337 337 337 337 338 337 336 334 331 328 327 325
336 343 342 338 333 332 334 333 335 336 337 336 336 336 336 337 336 336 336 336 337 337 335 335 337 339 339 338 338 338 339 339 338 337 337 336 334 334 335 336 337 337 337 337 337 336 334 333 331 331 330 330 330 330 325 315 305 301 301 301 302 305 309 315 321 324 327 329 332 332 333 336 336 336 337 337 337 337 336 336 335 333 331 329 326
336 343 343 340 334 332 334 334 335 336 338 337 337 337 337 338 336 335 335 335 337 336 336 337 338 338 338 337 338 338 338 338 338 338 337 336 334 334 335 336 337 337 337 337 336 334 333 332 331 330 329 328 327 323 314 304 300 300 300 300 300 300 302 309 318 322 325 328 330 330 331 335 336 336 337 337 336 334 335 335 335 334 333 332 330
337 341 343 342 336 333 333 335 336 336 338 338 338 337 338 338 337 335 334 336 336 336 337 337 337 337 337 337 338 338 338 338 338 338 337 336 334 334 335 336 337 337 336 336 335 333 331 331 330 328 328 325 319 311 303 299 299 300 300 300 300 300 300 307 318 322 324 327 328 331 332 334 335 336 337 336 335 333 332 333 333 333 334 334 334
337 339 342 342 340 335 333 335 336 337 338 337 338 337 338 339 339 336 334 336 336 336 336 336 336 335 336 337 338 339 338 339 338 337 336 335 334 334 335 335 335 335 335 334 334 332 330 329 328 327 326 320 308 302 299 299 299 299 300 300 300 301 300 304 314 320 324 327 328 331 333 334 335 335 335 335 335 333 332 332 333 333 334 335 335
337 338 341 342 341 338 334 335 336 337 337 338 338 337 337 338 339 337 336 336 336 336 335 335 336 335 336 337 338 339 339 338 338 337 336 336 334 333 334 334 334 333 333 334 333 331 329 328 327 327 324 313 302 299 299 299 299 299 299 300 299 300 300 302 307 313 322 327 328 330 332 334 334 333 334 334 333 333 332 333 334 334 334 335 335
337 337 340 342 341 340 337 335 335 336 337 337 337 337 337 337 338 337 337 337 336 335 335 335 336 336 336 337 338 338 338 338 338 337 336 336 334 333 333 333 333 332 332 332 331 330 329 328 327 326 320 307 300 299 298 299 299 299 299 299 300 300 300 300 302 309 319 325 326 328 330 332 332 332 332 332 332 331 331 333 333 334 334 335 335
335 335 336 341 341 341 340 338 336 336 337 337 337 337 337 337 336 336 337 337 336 336 336 336 336 336 337 337 338 338 339 338 338 337 336 335 334 334 333 333 332 332 331 330 328 328 327 327 326 325 316 303 299 298 298 299 298 299 299 299 299 300 300 300 304 312 318 321 324 326 328 330 331 330 329 329 329 329 330 331 332 333 333 333 334
333 335 334 338 340 340 341 340 338 336 336 337 338 338 338 338 336 335 336 337 337 337 337 337 336 336 337 337 338 339 339 338 338 337 336 335 334 334 333 332 331 331 330 328 327 326 326 325 325 323 311 301 299 298 298 298 299 299 299 299 299 300 300 301 307 313 315 316 319 321 324 327 328 328 328 327 327 327 327 329 330 330 331 331 331
333 335 334 336 338 339 339 340 339 338 337 337 338 338 338 338 336 335 336 337 337 337 337 338 337 336 336 337 338 339 339 339 338 337 336 335 334 334 333 332 330 329 329 327 326 326 326 325 324 318 307 300 298 298 298 298 299 299 299 299 299 300 300 301 306 311 313 312 314 315 318 322 325 327 327 326 325 325 325 326 327 328 329 329 329
333 335 334 334 336 337 337 338 339 339 338 337 337 338 338 338 337 336 337 337 337 336 336 336 337 337 337 337 337 339 339 339 338 337 336 335 334 333 332 331 327 328 327 325 325 325 325 325 322 314 303 299 298 298 298 299 299 299 299 299 299 299 299 300 302 307 309 309 310 310 312 319 324 325 325 325 324 324 324 324 324 325 325 326 327
330 334 334 334 333 334 335 336 337 338 338 338 337 338 338 338 337 337 338 338 337 336 336 335 335 337 337 336 337 338 339 338 338 337 336 335 334 332 332 329 326 327 326 325 324 324 324 324 320 309 300 298 298 298 299 299 299 299 300 300 300 299 299 300 300 302 303 305 306 305 310 319 323 323 324 323 323 322 323 323 321 322 323 324 325
329 332 334 334 333 333 333 334 335 336 336 337 337 337 337 338 338 338 338 338 337 336 336 335 334 335 337 337 337 338 338 338 337 337 336 334 333 332 331 328 325 325 326 325 324 324 324 322 317 306 299 298 298 298 299 299 299 300 300 300 300 299 299 299 299 300 300 301 301 300 307 316 320 322 323 322 321 319 319 321 320 320 321 322 323
328 331 333 334 334 333 332 332 333 333 334 335 335 335 336 337 338 338 339 338 337 335 335 335 333 334 336 337 337 338 338 337 337 336 335 333 333 331 330 328 324 323 325 324 323 324 323 321 316 305 299 298 298 298 299 299 299 299 299 299 299 299 299 299 299 299 299 299 298 298 303 308 315 320 320 319 319 315 314 317 319 321 321 320 321
323 326 329 332 333 333 333 333 333 332 332 333 333 334 335 337 338 338 339 338 336 335 335 334 333 333 335 337 337 338 337 337 336 335 334 333 332 331 329 328 325 322 323 324 323 323 323 321 314 305 300 298 298 298 298 298 299 299 299 299 299 299 298 299 299 298 298 298 298 298 299 302 308 315 317 315 313 309 309 313 317 320 320 318 319
321 322 324 327 330 332 334 334 333 333 333 332 331 331 332 336 338 338 338 337 336 334 334 334 333 333 335 336 337 337 337 337 336 334 333 332 331 330 329 327 326 323 321 323 323 322 322 320 314 308 301 298 297 297 298 298 298 299 299 299 298 299 298 298 298 298 298 297 297 297 297 299 302 311 317 315 311 305 307 313 316 318 319 318 319
321 321 321 322 325 327 330 333 334 334 334 333 331 330 330 334 337 338 338 337 335 333 332 332 332 333 334 336 336 337 337 337 335 334 333 332 330 329 328 327 326 324 321 322 323 321 321 320 316 311 301 298 297 297 298 298 298 299 299 299 298 298 298 298 298 297 297 297 297 296 297 298 299 309 317 317 313 306 308 315 318 319 319 319 320
319 321 322 322 323 323 324 328 332 334 335 334 333 331 330 333 336 337 337 336 334 333 331 330 331 332 334 336 336 336 336 336 335 334 332 332 330 329 328 327 326 325 321 320 322 321 321 319 317 311 302 299 297 297 298 298 299 299 299 299 297 298 298 298 298 297 297 297 296 296 296 297 297 306 317 319 314 309 312 318 318 319 319 318 319
318 320 322 322 323 323 323 324 328 332 334 335 334 332 332 333 333 334 334 334 333 333 331 330 331 333 334 336 336 336 336 335 334 333 332 331 330 328 327 326 325 325 321 318 320 321 320 317 314 308 301 299 297 297 298 297 299 300 299 298 297 298 298 298 298 297 298 297 297 297 296 296 296 302 315 320 316 314 316 318 318 318 318 317 318
317 318 319 320 323 324 324 324 325 328 332 334 335 334 333 332 332 332 333 333 332 333 331 329 330 333 334 335 336 336 335 334 333 332 331 330 329 327 326 326 325 325 322 317 316 320 319 314 311 306 300 297 297 298 298 298 299 300 298 298 298 298 298 298 298 298 298 298 298 297 296 296 295 298 312 319 318 317 318 318 318 318 317 317 317
317 317 317 319 322 323 324 325 325 326 329 333 335 334 334 333 333 333 333 333 332 332 331 329 330 332 334 335 335 335 335 333 333 331 330 329 328 327 326 326 324 324 322 316 313 317 317 312 308 306 301 297 297 297 298 299 299 299 298 297 298 298 298 298 298 298 298 298 298 298 297 297 296 296 306 317 318 318 318 317 317 318 317 317 317
317 317 317 319 320 323 325 325 325 325 326 330 334 334 334 334 333 334 334 333 333 332 332 330 330 331 333 334 334 335 334 333 332 331 329 328 327 326 325 325 324 323 321 316 311 313 315 311 306 305 302 297 296 297 297 298 299 298 297 297 297 298 298 298 298 298 299 299 298 298 298 297 297 296 301 314 319 318 318 317 317 317 317 317 316
315 316 316 317 320 323 326 325 325 325 326 329 331 334 334 334 333 333 333 333 333 332 332 332 331 331 332 333 334 334 334 333 332 330 329 328 327 326 325 325 324 323 321 316 311 311 313 311 306 305 304 299 297 297 297 297 298 297 297 296 297 298 298 297 298 298 298 299 298 298 298 297 297 296 298 309 317 317 317 317 317 316 316 316 316
312 314 314 316 319 322 325 326 326 326 326 328 329 332 333 333 334 333 333 332 333 333 333 332 331 331 331 332 333 334 333 332 331 330 328 328 327 326 325 325 323 322 320 315 311 311 313 311 305 304 304 299 297 298 297 297 297 297 297 296 297 298 298 298 297 298 298 298 298 297 297 297 296 296 299 306 313 316 316 316 316 316 316 316 315
309 311 313 315 317 320 322 324 326 326 326 327 327 330 332 333 333 333 333 332 332 332 332 331 331 331 330 331 331 332 332 332 330 329 328 327 326 326 325 324 323 322 319 314 312 313 314 313 309 307 305 299 297 298 297 297 297 297 297 297 297 298 298 298 298 298 298 298 297 297 296 297 296 296 299 303 309 314 315 315 315 315 315 315 315
307 309 311 314 316 318 320 321 324 326 327 326 327 328 330 332 332 332 332 332 332 331 331 331 331 330 330 330 330 330 331 331 330 329 328 327 326 326 325 324 322 320 317 315 315 314 314 315 313 311 306 300 298 298 297 297 297 297 297 297 297 297 298 298 298 297 298 298 297 297 296 296 296 296 299 302 306 311 313 314 314 315 315 315 314
306 308 310 312 315 316 319 320 321 325 326 326 327 327 328 331 332 332 331 331 331 331 331 331 330 330 330 330 330 329 330 330 329 328 327 327 326 325 324 323 322 319 316 316 316 314 314 316 315 311 306 301 299 297 297 296 296 297 297 296 296 297 298 298 298 297 298 298 297 297 296 296 296 296 298 301 305 309 311 311 311 313 314 314 314
306 307 308 311 314 316 318 320 322 324 326 327 327 327 328 330 331 331 330 330 330 330 330 330 330 330 330 330 329 329 329 329 329 328 327 326 326 325 324 322 321 318 316 316 316 315 314 315 314 310 304 301 299 297 297 297 297 297 296 296 296 296 298 298 298 297 298 298 297 297 297 296 296 296 298 300 303 306 308 309 308 311 314 313 313
305 306 308 310 314 316 317 318 320 321 323 326 327 327 327 328 329 329 329 329 329 329 329 329 329 329 329 329 329 329 329 329 328 328 327 326 325 324 323 322 320 318 317 317 316 315 314 314 312 309 304 300 299 298 297 298 297 297 296 295 295 296 297 297 297 297 297 297 296 297 297 297 296 296 297 299 302 304 307 308 304 308 313 312 312
304 306 307 309 311 312 313 314 315 317 318 322 324 324 325 326 327 327 327 328 328 328 328 329 329 328 329 328 328 328 328 329 328 327 327 325 325 324 323 321 320 318 318 317 317 316 314 312 310 306 303 300 299 298 298 298 297 297 297 295 295 295 296 296 296 296 296 296 296 296 296 297 297 297 297 298 300 301 304 304 299 305 313 312 311
303 305 306 307 308 309 310 311 312 314 316 318 321 322 323 324 325 325 325 326 326 327 327 328 328 328 328 328 328 327 327 328 328 327 326 325 324 324 323 321 320 318 317 317 316 315 313 311 308 304 302 300 299 299 298 298 297 297 296 295 295 295 295 295 295 296 295 295 295 295 296 296 296 297 297 297 298 298 299 299 298 305 312 311 310
301 303 304 306 306 307 309 309 311 314 316 317 318 319 320 320 322 322 323 324 324 325 325 325 326 326 326 326 327 326 326 326 326 326 325 324 324 323 322 321 319 318 317 316 315 313 311 309 307 303 301 300 299 298 298 298 297 297 296 296 296 295 295 295 295 295 295 295 295 295 296 296 296 296 296 296 297 297 297 297 297 302 307 307 306
300 301 303 304 305 306 307 308 309 312 315 316 315 316 317 317 318 319 319 320 321 322 323 323 323 323 323 324 324 324 324 324 324 325 324 324 323 322 322 320 319 317 316 315 313 312 311 308 306 304 301 299 299 298 298 297 297 297 296 296 296 296 296 296 296 296 295 295 295 295 295 295 296 296 296 296 296 296 296 296 295 296 299 299 302
299 300 301 302 303 304 305 306 306 309 311 312 313 313 314 315 316 316 317 318 318 318 318 319 320 319 320 320 320 320 321 322 322 323 323 323 322 321 320 319 317 316 315 314 313 312 310 308 306 304 301 300 298 298 297 297 297 296 296 296 296 296 297 296 296 296 295 295 294 294 295 295 295 295 295 295 295 295 294 294 294 293 294 296 301
298 298 299 300 301 303 303 304 305 307 308 309 310 310 310 311 312 313 315 315 316 316 316 316 317 317 317 317 317 317 317 318 319 320 321 321 320 319 319 318 316 315 314 313 312 311 309 308 305 303 301 299 298 297 297 297 297 296 296 295 296 296 295 296 296 295 295 295 295 295 295 295 295 294 295 295 294 294 294 293 293 292 293 294 297
298 298 298 298 300 301 302 303 304 305 306 307 308 308 308 309 309 309 310 311 311 312 313 313 313 314 314 314 314 314 314 314 315 316 318 318 318 317 316 316 315 313 313 311 311 310 308 307 305 303 300 298 298 297 297 297 297 296 295 296 297 296 295 294 294 295 295 295 295 295 295 294 294 294 293 294 294 293 293 293 292 292 292 292 293
297 297 297 297 298 299 300 301 302 303 304 305 306 306 307 307 307 307 307 307 307 308 309 309 309 309 309 308 308 308 309 309 310 311 313 314 315 315 314 314 313 311 311 310 310 308 307 306 304 303 300 298 297 297 297 297 297 297 296 296 296 296 299 296 292 294 295 295 295 295 295 294 293 293 293 293 293 293 293 292 292 292 291 291 291
296 297 297 297 297 297 298 300 301 302 303 304 304 305 305 306 306 306 306 305 305 305 305 306 306 306 305 304 304 304 304 305 306 307 308 309 311 312 312 312 311 310 309 308 308 308 307 306 304 302 300 298 297 297 297 297 297 297 296 298 297 297 303 298 292 294 294 294 295 294 293 293 293 293 293 292 292 292 292 291 291 291 290 290 290
295 296 296 296 296 296 297 298 299 300 301 302 303 303 304 304 303 303 303 303 302 302 303 303 304 304 304 303 303 303 302 302 303 304 305 305 307 308 309 310 310 309 307 306 306 306 306 305 304 302 300 299 298 297 297 297 297 297 296 298 298 299 301 297 295 297 294 292 294 294 293 293 293 293 292 292 292 291 291 290 290 290 290 290 290
295 295 295 296 296 296 296 296 296 297 298 299 300 301 301 301 301 301 301 300 300 301 301 302 302 302 303 303 302 302 302 301 301 301 302 302 303 304 305 306 307 307 306 305 304 304 305 304 303 302 301 300 298 296 297 297 296 296 296 297 297 298 299 297 297 300 298 295 293 292 293 293 293 293 292 292 292 291 290 290 290 290 290 290 290
294 294 294 294 294 295 295 295 295 295 296 297 298 298 299 299 299 299 299 299 299 299 300 300 301 301 301 301 301 302 301 301 301 300 300 300 301 301 302 303 304 305 305 304 303 303 303 303 303 301 300 299 298 297 297 297 296 296 296 296 296 297 298 298 297 298 301 301 295 292 293 293 292 293 292 292 292 291 291 290 290 290 289 290 290
293 293 293 293 294 294 294 294 294 294 294 295 295 296 297 297 297 297 297 297 298 298 299 299 299 300 300 300 300 300 300 301 301 300 300 300 299 299 300 300 301 302 303 303 303 302 302 302 301 301 300 299 298 297 296 296 296 296 296 296 295 296 297 298 297 296 299 301 298 293 291 292 292 292 292 292 292 291 290 290 290 289 289 289 290
292 292 292 292 293 293 293 293 292 292 293 293 294 295 295 296 295 295 295 295 296 296 296 297 297 298 298 298 298 298 299 299 299 299 299 299 299 299 299 299 299 299 300 301 301 301 301 301 301 300 299 298 298 298 297 296 296 296 296 296 295 295 296 298 297 296 296 297 298 295 290 291 292 292 292 292 291 291 290 290 290 289 289 289 289
291 291 291 291 292 292 292 292 292 291 291 291 292 292 293 293 293 293 293 293 293 294 294 294 294 295 295 296 296 297 297 297 297 298 298 298 298 299 299 298 298 298 298 298 299 300 300 300 300 300 299 298 297 297 297 296 296 295 295 296 295 295 296 297 297 297 296 296 298 297 291 290 291 291 292 292 291 291 290 290 290 290 289 289 288
Wind_Speed
16 16 21 25 25 24 24 22 20 19 19 17 17 16 16 15 14 14 13 13 12 12 11 10 9 8 8 9 9 10 10 9 9 8 8 8 9 8 8 9 8 8 7 8 8 7 8 9 9 9 9 9 10 10 10 10 10 10 11 12 14 14 14 12 12 11 11 11 10 9 9 10 11 10 10 9 9 8 7 7 7 8 9 9 9
18 17 20 25 25 24 25 23 21 20 20 18 17 17 16 16 15 14 13 13 11 10 10 9 9 9 9 9 10 11 11 10 10 8 8 8 9 8 7 7 6 6 6 6 6 6 7 8 9 9 8 9 10 9 9 10 10 10 10 10 11 12 13 13 12 11 10 11 10 8 8 8 9 9 9 8 8 7 7 7 7 8 9 8 8
18 17 19 25 25 24 25 24 22 21 21 20 18 17 16 16 15 15 14 13 11 10 10 9 9 9 9 9 10 11 11 11 10 9 8 9 9 8 6 6 6 5 5 5 5 5 6 7 7 6 7 8 8 8 8 8 8 9 9 9 9 9 10 12 11 11 11 10 9 7 7 6 6 7 7 6 6 6 6 8 8 9 9 8 8
19 18 19 24 26 24 24 24 23 21 21 21 20 19 17 16 15 15 14 13 12 11 10 10 10 10 10 9 9 10 10 10 10 9 8 8 8 7 6 6 6 5 4 5 5 6 6 6 5 4 4 6 7 7 7 7 7 6 6 6 6 7 8 10 10 10 10 9 6 5 5 5 4 5 5 5 5 6 6 8 9 9 9 9 8
18 18 18 23 27 25 25 24 24 22 21 21 21 20 19 17 16 15 14 13 12 12 11 11 11 11 10 9 9 9 9 9 9 8 8 7 7 6 6 6 5 4 4 5 6 7 6 5 3 2 2 4 6 6 6 5 5 4 2 2 3 4 6 8 9 9 9 6 3 3 5 5 4 4 5 5 5 6 7 8 9 8 8 9 9
17 18 18 23 27 26 26 24 24 23 22 22 21 20 20 19 17 16 15 14 13 12 12 13 12 11 10 9 9 8 8 8 7 7 7 7 7 6 7 7 4 4 5 5 6 6 5 4 2 2 2 4 5 4 3 4 5 4 1 2 3 3 4 6 8 9 7 6 4 5 6 6 4 4 5 5 6 6 6 7 8 7 7 8 8
15 17 17 22 28 27 26 25 25 24 23 23 23 22 21 20 18 16 16 15 13 12 13 14 13 12 10 10 9 8 8 8 7 7 6 6 6 6 7 7 5 5 5 6 6 5 5 4 1 2 3 3 3 2 2 4 5 5 3 3 4 5 5 5 7 8 7 7 8 6 7 6 4 4 3 3 5 5 6 6 7 6 6 6 7
15 16 16 20 27 28 27 25 24 25 24 23 23 22 22 21 19 18 17 16 15 13 13 14 13 12 11 10 10 9 9 8 8 7 7 6 6 7 8 7 6 6 6 6 6 5 4 2 1 2 2 1 1 1 2 4 5 4 3 3 4 5 6 7 7 8 8 7 9 7 7 6 4 3 2 2 3 5 6 6 6 6 6 6 6
15 15 15 18 26 28 27 26 24 24 24 24 23 22 22 21 20 19 18 17 16 15 14 15 13 12 11 10 10 10 10 9 9 8 8 7 6 7 8 7 7 6 6 6 6 4 2 1 1 1 1 2 2 1 3 4 3 2 1 2 3 4 6 7 8 9 9 8 7 6 7 6 3 3 2 3 4 4 5 5 6 5 5 5 5
16 14 14 16 22 28 28 27 25 24 23 23 23 22 22 21 20 19 19 18 18 17 15 15 14 13 12 11 11 11 11 10 10 10 10 9 7 7 8 9 8 7 7 6 5 4 2 2 1 0 1 4 3 2 3 3 3 3 3 3 3 5 6 9 10 10 10 8 6 6 8 6 5 5 4 4 4 4 4 4 3 2 3 3 4
17 13 14 14 19 26 28 27 25 25 24 23 23 22 21 20 19 19 19 19 19 18 17 16 15 14 13 12 12 12 12 12 11 12 11 10 8 7 8 9 9 8 7 6 4 3 2 1 0 0 1 3 2 2 3 3 5 5 6 5 5 5 7 10 11 10 10 8 6 7 8 7 7 7 5 5 5 4 4 3 2 1 2 3 4
17 14 13 13 16 22 27 28 26 25 24 24 23 23 21 19 19 19 19 19 19 19 17 17 15 15 14 13 12 12 12 13 12 12 11 10 10 9 9 8 8 8 7 6 5 2 2 2 2 2 2 2 1 3 4 5 6 6 6 6 6 6 6 9 11 11 10 8 8 8 9 9 9 7 6 5 4 5 4 3 2 1 2 3 4
17 16 14 13 14 18 24 27 27 26 25 25 24 24 23 21 19 18 18 18 18 18 18 17 16 16 15 14 13 13 13 13 13 13 11 11 12 11 10 9 8 8 8 8 6 4 4 5 3 3 3 2 2 4 6 6 6 6 7 7 6 6 6 8 9 11 11 9 8 8 9 9 9 7 5 5 4 4 4 3 3 2 2 3 4
15 17 16 14 14 15 19 24 27 27 26 26 25 25 24 23 21 19 18 18 17 18 18 17 17 17 16 15 14 14 14 14 15 15 14 12 12 11 10 10 9 8 8 7 6 6 5 5 3 3 4 2 2 5 6 7 7 7 7 7 6 6 7 8 9 11 12 10 9 8 9 9 10 8 5 5 4 4 4 4 5 5 4 4 5
15 16 18 17 15 16 17 21 25 27 27 27 26 26 24 24 23 21 20 19 18 17 17 17 17 17 17 16 16 15 15 16 17 16 15 13 13 11 10 11 9 8 8 6 5 6 5 4 5 5 4 2 4 6 7 7 7 7 7 7 6 6 6 8 10 12 12 10 9 8 8 9 10 8 5 4 4 4 4 3 4 4 4 4 4
15 15 18 19 18 17 18 20 22 25 27 27 27 26 25 25 24 23 21 20 19 18 18 17 17 17 17 17 16 16 16 18 18 17 16 14 14 12 11 11 10 9 9 7 7 8 7 6 8 8 5 3 5 6 7 7 7 8 7 7 6 6 6 8 11 11 10 9 8 8 8 8 9 8 6 5 4 4 3 3 3 2 2 2 2
16 17 19 20 20 19 20 21 22 23 25 27 27 27 26 26 25 25 23 22 21 20 19 18 18 18 18 17 17 17 17 18 18 17 16 16 15 13 12 12 10 9 8 8 9 9 8 8 10 9 6 5 6 7 7 7 7 8 8 7 6 6 6 8 10 10 9 8 6 6 8 8 9 9 7 6 4 4 3 3 2 2 2 2 2
17 18 20 20 21 21 21 22 23 24 25 26 27 28 27 27 26 26 25 24 23 23 21 20 19 19 19 18 18 18 17 19 18 17 16 16 15 13 13 11 9 10 9 9 11 10 10 10 11 9 7 6 6 6 6 7 7 7 7 6 6 7 7 7 9 9 7 6 5 5 7 9 9 8 7 6 5 4 3 2 2 2 2 4 4
17 19 21 21 22 22 22 23 24 25 26 27 27 28 28 28 27 27 26 25 24 24 22 21 21 20 19 19 19 18 18 19 18 18 16 15 14 13 12 9 8 11 11 11 11 10 10 11 12 9 8 7 7 6 6 6 6 6 6 6 6 6 6 6 6 6 5 4 4 4 7 9 8 6 5 4 4 3 3 2 2 2 3 3 4
16 19 21 23 23 23 23 23 25 26 27 27 28 28 29 29 28 27 27 26 25 24 22 22 21 21 20 19 19 19 19 19 19 18 16 15 14 13 11 9 9 12 11 11 11 10 10 12 13 10 9 8 7 7 6 6 6 6 6 6 6 6 5 5 4 3 3 3 3 3 6 8 7 5 4 4 3 3 3 2 2 2 3 3 3
17 19 20 22 23 24 24 24 24 25 27 28 28 29 29 30 29 29 28 27 26 24 23 22 22 22 21 20 20 20 20 20 19 18 17 16 15 14 13 10 10 12 13 12 11 11 10 13 13 11 10 9 7 7 7 7 7 6 6 6 6 6 5 4 4 4 4 4 3 3 5 6 6 4 4 3 2 2 2 3 2 2 2 3 3
18 20 21 22 22 23 24 24 24 25 26 27 29 30 30 31 31 30 29 28 26 25 24 23 22 22 22 22 22 22 22 21 20 19 19 18 17 16 14 12 11 12 15 14 13 12 10 11 13 12 11 9 8 8 7 7 7 6 6 6 6 5 5 4 4 5 5 4 4 4 4 5 5 4 3 2 2 2 2 3 3 3 2 2 2
19 20 21 22 22 23 24 25 25 25 25 27 28 30 31 32 33 32 30 29 27 26 25 24 24 23 23 23 24 24 24 23 21 21 20 19 18 16 15 14 12 13 15 16 15 13 11 10 11 12 11 9 8 8 8 7 6 5 5 5 4 4 4 4 4 5 5 5 5 5 5 5 6 4 2 2 2 2 3 3 3 4 3 3 3
20 20 19 20 22 23 25 26 27 26 26 26 27 29 31 32 34 33 32 30 29 28 27 26 25 24 25 25 25 25 25 24 23 22 21 20 19 17 17 16 14 13 15 18 16 14 14 11 11 13 11 10 9 8 8 7 6 5 4 4 3 3 3 3 4 4 4 4 5 5 5 5 6 5 3 2 2 2 4 4 4 4 3 4 3
18 19 19 20 21 22 24 26 28 27 27 27 27 28 29 31 33 34 33 32 31 30 29 28 27 26 26 26 26 26 26 25 24 23 22 21 21 20 19 18 17 16 16 19 18 17 17 14 14 14 12 10 9 9 8 6 5 5 4 3 3 3 2 2 3 4 3 3 4 4 4 5 6 6 3 3 2 2 4 4 3 4 3 3 3
17 18 20 20 20 21 22 24 27 29 28 28 28 28 29 31 32 32 32 31 31 31 31 29 28 27 27 27 27 27 26 25 24 24 23 23 22 22 21 20 19 18 18 20 21 21 21 19 18 15 12 11 10 10 8 7 7 5 4 4 4 3 2 2 2 3 2 2 2 3 3 4 5 6 4 3 3 2 3 3 4 4 3 3 3
18 19 20 20 21 21 21 23 25 28 29 29 28 28 29 30 30 30 30 30 30 31 32 31 30 29 29 29 29 28 27 26 25 24 24 24 23 23 22 21 21 20 20 21 23 24 23 21 20 15 14 14 12 11 10 9 8 6 5 5 5 4 3 3 2 2 2 1 2 2 3 4 5 6 5 4 3 3 3 3 3 3 3 3 3
17 18 19 20 21 21 21 22 23 25 28 29 29 29 29 30 30 30 30 29 29 29 30 31 32 31 31 31 30 29 28 27 26 25 25 24 24 23 22 22 22 21 21 22 24 25 25 23 21 17 16 15 14 12 11 10 9 7 7 7 6 5 4 4 4 3 2 2 2 2 2 3 5 6 6 5 4 3 3 3 3 4 3 3 3
14 16 17 19 20 20 20 21 22 22 25 28 29 29 29 29 29 29 30 29 29 29 29 29 31 32 32 32 31 30 29 28 27 26 26 26 26 24 24 23 22 22 22 24 25 26 26 25 22 19 17 17 16 15 14 12 11 9 9 8 7 6 5 5 6 5 3 2 3 2 3 3 4 6 7 7 5 4 4 4 4 4 4 4 4
9 10 10 13 16 18 19 20 20 20 23 26 29 29 29 30 30 30 29 28 29 28 28 28 30 32 33 33 32 31 30 29 29 28 28 28 27 26 25 24 23 23 23 25 27 27 27 26 24 21 20 19 18 17 15 14 13 12 11 10 9 8 7 6 6 6 5 4 4 3 3 4 4 6 7 8 8 6 5 5 5 5 5 5 5
17 14 13 10 11 14 17 18 19 19 21 24 26 28 29 29 30 30 28 26 26 27 27 27 28 29 31 32 33 32 31 30 30 29 29 30 29 27 26 24 24 24 25 26 27 27 27 26 24 22 22 21 20 18 16 16 15 14 13 11 10 9 8 8 7 7 6 5 4 4 3 4 5 6 8 9 10 9 7 7 6 6 6 6 7
24 21 17 10 6 10 13 15 17 19 20 22 23 26 28 28 28 29 29 27 25 25 25 26 27 27 28 29 31 32 32 32 31 31 31 31 30 28 26 25 25 25 25 26 27 27 26 24 23 22 21 21 20 19 18 17 17 15 14 12 12 10 10 9 8 8 7 6 5 5 4 4 6 7 9 11 11 11 9 7 7 9 10 8 8
26 24 19 13 7 6 9 11 13 16 19 19 21 23 25 26 26 26 27 27 26 25 24 25 26 26 26 27 28 30 31 32 32 31 31 31 30 29 27 26 25 24 25 26 26 25 24 23 22 20 20 21 21 20 19 18 17 16 14 13 13 12 11 10 10 9 8 8 6 5 5 6 7 8 10 11 11 12 12 11 11 13 13 10 8
25 24 22 20 14 6 3 6 8 13 16 17 19 20 22 23 24 22 22 24 26 25 24 24 24 24 25 26 27 28 29 31 32 31 30 30 30 28 27 26 25 24 25 26 26 25 25 24 23 22 21 22 22 22 21 20 19 17 16 15 14 13 13 12 11 10 10 9 8 7 7 7 8 9 10 11 12 12 14 14 14 15 14 10 9
25 25 24 23 19 13 8 5 1 6 11 14 16 16 18 19 20 19 17 18 21 23 23 23 23 22 23 25 26 27 29 31 32 31 30 29 29 28 27 26 25 25 25 26 26 26 26 26 25 24 23 23 23 22 22 21 20 19 17 17 16 15 15 15 13 11 11 11 9 9 8 8 9 10 11 12 12 12 14 14 12 14 15 11 11
26 25 24 23 21 18 14 12 10 5 0 6 9 9 10 12 14 15 13 13 15 19 21 22 22 21 21 22 24 26 27 30 31 30 30 29 29 28 26 26 25 26 26 26 27 27 27 26 26 25 25 25 24 23 22 21 20 18 17 17 16 16 16 15 14 12 11 11 11 10 10 9 10 11 12 13 13 13 14 14 11 13 15 14 14
27 25 25 24 23 21 18 15 14 12 9 3 1 2 2 4 7 8 8 8 10 13 16 18 20 20 20 20 21 22 25 28 29 29 28 28 28 27 26 26 26 27 27 27 27 27 27 26 25 25 26 26 26 25 23 21 19 18 17 17 16 16 16 14 13 13 13 12 12 12 11 11 11 11 12 14 15 14 15 14 12 13 15 15 15
27 26 26 26 25 23 20 18 15 13 12 8 5 3 3 3 3 3 2 3 4 6 9 11 14 17 18 18 19 19 21 25 27 27 26 26 26 26 26 26 27 28 28 28 28 27 27 26 26 25 26 26 26 26 24 22 20 18 17 17 16 15 14 14 14 14 13 13 13 13 13 13 13 13 13 14 15 15 16 15 13 13 16 16 15
29 29 27 26 26 25 23 21 19 16 13 11 8 6 5 4 3 3 3 2 2 2 3 5 7 10 12 14 17 18 19 22 24 25 25 25 25 25 26 27 28 29 29 29 29 28 27 27 27 26 27 26 26 25 24 22 19 18 17 15 14 14 14 13 14 14 14 14 15 15 15 15 15 15 14 14 14 15 15 15 14 15 17 17 16
30 31 30 29 28 26 25 24 23 20 17 15 13 11 9 8 6 5 4 4 3 2 1 1 1 3 5 8 11 13 15 18 21 23 24 24 24 25 27 28 29 30 31 31 31 31 30 29 29 28 28 26 24 24 24 24 21 17 15 14 13 12 13 13 13 14 15 16 16 16 16 17 18 17 17 15 14 15 15 15 15 16 17 17 17
31 32 31 30 29 27 26 25 24 22 21 21 20 19 16 14 12 10 7 6 5 4 3 3 4 4 3 4 5 6 9 12 16 20 22 24 25 26 27 28 29 30 31 32 32 31 31 30 29 28 28 28 26 25 26 26 22 16 11 12 13 13 12 12 13 15 16 17 17 17 18 18 19 18 18 18 16 16 15 15 15 16 16 16 17
31 31 31 30 29 28 27 25 24 22 22 21 21 21 20 18 17 15 12 10 8 5 4 3 4 5 5 6 6 6 6 7 11 16 20 22 23 25 26 27 28 29 30 31 31 31 30 30 29 28 28 29 29 28 30 28 22 18 14 8 7 10 12 13 15 17 17 18 18 18 19 19 19 19 19 19 18 18 17 16 15 16 17 17 18
31 31 31 30 30 29 27 26 25 24 23 21 20 20 20 18 17 17 15 14 12 9 6 5 4 4 5 7 8 8 8 8 9 12 16 19 20 22 24 25 27 28 29 30 30 30 30 30 30 30 28 28 28 29 34 32 24 20 13 6 4 5 6 13 19 21 20 20 20 20 20 21 20 19 20 20 20 19 18 18 17 17 17 18 19
30 31 30 29 29 29 28 27 26 25 23 21 20 19 18 18 17 17 18 17 16 13 11 10 8 7 6 7 7 7 8 9 9 10 12 15 18 20 21 23 24 25 27 28 30 30 30 30 31 31 30 27 26 28 35 37 30 22 11 2 3 3 3 9 16 20 21 21 22 22 22 22 21 21 21 22 21 21 20 19 18 18 18 18 18
29 29 29 29 29 29 28 27 26 24 23 21 20 19 19 19 18 18 19 20 20 19 17 14 12 10 10 10 9 8 8 8 8 9 10 12 14 17 19 20 21 23 24 26 28 29 29 31 31 32 32 30 28 28 33 37 37 33 21 7 4 3 4 5 8 12 19 23 22 22 23 23 23 22 23 23 22 22 22 21 20 19 19 19 18
28 28 29 29 29 29 29 28 27 25 23 22 21 21 23 23 22 22 22 22 22 22 20 16 14 12 11 11 11 11 11 10 9 9 10 11 12 14 17 19 20 20 21 23 26 27 28 29 31 32 33 33 31 27 29 36 38 37 32 21 13 7 4 7 5 3 11 20 22 22 24 24 24 24 24 24 24 24 24 23 23 22 20 20 19
26 26 27 28 29 30 30 30 29 27 25 24 22 23 25 25 25 24 24 23 22 21 20 17 16 14 12 11 12 12 12 11 11 10 9 10 11 12 13 16 19 20 19 20 23 25 27 28 29 31 33 34 33 28 27 34 34 33 35 34 25 13 7 9 7 3 3 10 20 24 25 25 25 26 27 26 25 25 26 25 24 24 23 22 21
25 26 27 28 29 29 30 30 30 30 28 26 25 26 27 26 25 24 23 22 21 20 18 16 15 15 13 13 13 12 12 12 12 12 12 10 10 11 12 13 16 18 19 19 20 22 25 27 28 30 32 33 34 31 30 31 30 31 35 37 31 21 14 13 14 11 6 3 11 17 23 27 28 28 29 29 29 28 28 28 27 26 25 25 24
25 26 26 27 28 29 30 31 32 31 29 29 28 29 29 28 27 25 24 22 20 18 16 15 15 15 15 15 15 15 13 12 12 13 14 13 12 11 11 13 14 16 18 20 20 20 22 25 27 28 30 32 34 33 32 31 32 31 31 33 33 26 20 16 17 16 9 5 5 7 14 20 22 30 33 31 31 32 31 29 28 27 26 27 27
24 25 26 27 28 29 30 31 31 30 29 29 30 32 31 31 29 28 26 24 22 20 19 19 18 17 17 17 17 17 16 14 13 13 14 15 14 12 12 12 12 14 16 18 20 20 21 23 25 27 28 30 32 34 34 33 34 34 31 30 29 25 19 14 14 16 11 6 5 5 11 16 15 25 35 36 35 34 33 32 29 29 28 28 29
23 24 26 26 27 27 28 29 29 28 28 29 31 33 33 32 31 29 29 27 26 25 25 25 23 22 21 20 18 17 16 16 14 13 13 14 14 13 13 12 12 13 15 16 18 20 21 22 23 25 27 28 29 32 34 35 34 34 34 32 30 28 23 18 17 20 15 8 5 4 10 19 17 19 27 35 37 35 34 34 32 31 31 30 31
Wind_Direction
193 184 185 181 182 184 181 173 165 163 159 160 160 160 161 161 160 160 158 158 159 161 170 164 158 159 159 156 149 138 135 134 128 126 121 122 118 111 105 104 103 103 103 98 102 108 113 111 104 102 98 93 84 80 83 84 81 76 72 71 77 86 95 98 98 103 110 110 103 98 95 98 99 97 98 93 89 86 76 66 69 75 72 72 73
184 180 187 182 184 185 183 178 169 166 163 163 163 164 164 164 162 163 164 163 164 166 169 163 157 155 152 152 153 147 143 141 136 133 130 132 125 118 110 108 109 106 108 108 119 119 119 116 109 109 101 96 89 82 85 86 87 83 80 77 78 85 92 97 97 99 104 105 102 98 94 97 101 100 99 95 90 84 73 67 73 73 70 70 75
179 179 186 183 186 186 185 182 174 169 167 167 166 169 169 169 167 168 170 168 168 170 172 166 159 151 148 149 153 153 149 148 144 143 143 142 134 128 123 125 121 112 121 127 133 118 114 119 116 113 95 92 90 83 82 85 90 87 85 82 80 83 91 97 101 104 103 101 98 96 95 91 94 100 100 99 95 84 73 71 72 71 71 70 73
184 182 184 185 186 187 186 185 179 173 171 170 170 172 173 174 172 173 174 172 172 173 175 165 158 153 152 151 151 153 152 152 152 152 151 148 145 142 137 140 132 134 150 134 125 121 117 117 115 107 88 86 86 81 77 78 81 82 85 87 87 86 93 101 107 108 107 103 93 100 102 84 87 100 101 101 99 89 77 72 69 66 70 70 74
189 185 183 186 187 187 188 187 182 177 176 174 174 176 177 178 177 179 179 176 176 176 174 164 161 159 158 155 153 154 152 153 154 156 156 154 155 155 148 148 145 155 157 132 124 124 117 107 94 85 107 97 84 78 74 63 54 50 64 104 111 102 102 108 117 119 115 104 91 152 117 79 82 93 96 95 94 88 79 73 67 61 65 68 73
190 186 185 187 188 189 189 189 185 182 180 178 178 180 180 181 181 183 184 181 179 180 174 167 166 165 163 162 164 161 159 160 159 162 163 163 162 161 156 156 157 157 150 138 130 120 107 100 84 63 124 112 86 73 55 23 9 4 335 223 198 167 141 123 129 134 127 96 83 154 131 88 78 92 103 99 93 86 76 74 68 57 56 63 69
193 186 189 190 190 190 191 191 187 185 183 181 181 182 182 183 184 185 187 183 181 184 175 170 171 170 171 171 172 168 169 168 167 172 170 169 166 163 161 162 162 158 154 142 128 114 108 106 87 63 99 105 87 60 4 347 340 330 302 246 226 207 186 162 146 145 141 103 87 129 140 112 98 100 114 110 102 95 83 72 63 52 45 52 59
195 188 190 192 193 191 192 193 189 188 186 185 185 184 183 184 186 187 187 183 182 185 179 174 176 177 179 179 178 177 176 172 172 172 169 168 164 164 163 164 164 159 151 137 125 115 113 103 42 37 81 112 90 16 327 330 329 313 285 250 227 216 198 187 174 164 161 128 99 111 131 122 112 94 88 107 105 101 94 79 70 55 35 38 43
196 191 191 194 196 193 193 194 192 190 189 188 188 187 185 187 190 189 185 181 181 183 181 178 180 183 185 185 185 187 183 177 175 169 167 165 156 162 163 162 162 154 141 133 127 118 107 74 45 20 17 262 262 315 329 336 338 334 270 223 205 200 187 182 180 177 175 157 127 104 107 115 108 89 79 90 98 101 99 89 88 71 33 26 38
196 193 194 196 197 197 195 196 195 192 191 190 189 189 188 190 193 191 184 180 180 181 182 182 185 187 188 189 191 197 190 182 179 170 167 162 159 168 166 161 157 153 148 142 135 123 108 76 65 34 297 263 259 321 344 4 44 79 96 115 146 166 166 165 168 174 176 169 152 104 102 117 105 96 94 90 95 99 97 95 94 66 33 36 59
196 199 199 198 197 200 199 197 198 196 194 193 192 192 191 191 193 193 186 181 181 182 185 186 188 190 190 191 196 203 193 185 180 173 169 164 168 170 165 164 161 161 159 154 148 141 129 115 148 135 256 254 272 10 30 63 84 91 96 105 121 143 155 161 164 165 167 164 145 113 112 124 111 101 100 90 82 82 85 91 84 43 67 84 97
193 203 204 202 198 200 203 201 199 199 198 196 196 197 195 193 195 196 190 186 185 186 188 188 189 190 191 191 199 208 196 187 183 179 176 171 177 176 166 169 175 179 176 169 165 175 188 175 167 153 198 249 358 54 85 93 96 98 100 106 116 128 141 159 168 162 158 156 138 122 124 131 122 109 100 93 75 73 74 84 95 105 129 136 122
188 197 205 209 204 201 205 205 203 201 201 200 199 200 200 199 198 198 195 193 192 192 191 190 190 191 192 192 200 210 198 188 185 181 179 179 185 185 177 178 188 197 198 194 186 191 201 188 172 161 202 261 41 88 102 104 105 103 104 107 115 123 126 144 162 158 154 157 144 133 134 138 131 115 102 97 83 78 78 87 95 97 130 149 131
188 192 202 211 210 206 206 208 207 205 204 203 203 203 203 204 202 198 198 199 200 198 196 194 193 192 193 194 202 210 203 189 186 186 186 189 191 191 192 194 194 204 211 213 212 214 214 200 183 176 207 256 97 108 111 111 109 108 107 109 114 121 124 129 138 145 153 161 154 144 142 143 136 122 113 101 89 89 89 91 92 93 109 128 129
196 195 201 208 212 212 208 209 211 209 209 207 207 206 205 207 206 202 201 202 203 204 203 202 200 197 197 200 205 211 203 190 191 197 198 201 204 204 207 207 204 214 223 222 218 217 213 194 187 192 216 210 127 121 119 117 114 113 111 112 115 120 125 126 129 141 153 162 161 156 149 148 141 126 122 117 97 97 101 100 105 111 115 118 123
200 202 203 207 212 213 209 209 211 213 213 212 212 209 207 208 208 206 203 204 206 207 208 208 208 205 204 205 209 212 201 194 199 202 204 209 212 215 215 218 219 221 227 217 202 199 189 189 207 210 216 188 139 129 127 123 120 119 119 120 122 125 120 118 130 146 155 160 165 166 161 154 144 123 115 125 108 102 107 108 123 136 141 141 146
197 205 207 208 212 213 212 210 210 213 215 217 216 214 211 209 210 209 206 207 208 211 210 211 212 211 211 210 213 214 202 199 205 204 208 213 215 220 220 229 233 221 221 207 193 190 180 192 216 217 204 175 143 135 131 126 125 124 126 129 129 126 120 120 138 155 158 162 158 156 167 160 148 130 114 116 109 102 107 116 130 146 186 197 205
197 206 210 213 214 215 215 213 212 213 214 217 218 217 215 212 212 212 211 210 211 213 212 213 214 213 214 213 216 217 207 205 209 208 211 214 217 225 228 240 234 208 205 196 187 186 181 196 217 212 193 171 145 140 135 129 128 128 130 131 128 124 126 133 146 159 160 166 153 136 160 159 153 148 132 121 116 104 97 117 143 157 212 220 227
202 208 212 217 218 217 217 216 215 214 215 216 218 219 218 216 215 215 214 214 215 216 215 216 216 215 214 215 219 220 215 211 211 214 216 218 222 230 237 246 220 196 201 200 192 186 182 203 218 207 187 167 151 148 141 138 136 135 135 130 128 129 137 145 152 161 158 156 148 137 154 158 154 158 151 145 151 140 124 142 167 174 200 212 228
210 213 215 219 221 221 219 218 217 217 219 219 219 220 220 219 217 217 217 219 221 221 220 220 220 218 215 215 218 219 217 214 213 217 222 226 229 236 243 243 213 196 202 203 196 189 190 210 216 202 185 169 160 159 151 151 151 147 145 138 138 141 145 152 155 158 142 125 131 144 156 159 148 139 142 155 181 190 173 170 175 173 187 199 214
218 220 221 222 221 223 223 221 220 220 221 221 222 222 222 220 218 218 219 221 224 226 226 224 224 221 217 215 215 217 215 214 215 218 224 230 235 242 244 239 222 203 203 207 198 190 198 215 217 201 184 171 165 166 164 163 161 154 146 141 144 146 143 146 143 131 132 132 139 152 164 167 151 136 141 150 167 194 188 170 157 145 167 192 198
227 226 227 226 223 223 225 225 224 223 222 222 223 224 223 220 219 219 220 222 224 227 228 226 226 221 217 215 215 215 213 214 216 218 222 228 234 239 240 238 232 214 207 209 204 195 198 210 214 202 180 170 172 173 173 168 166 156 141 140 142 139 134 136 129 123 133 139 143 158 167 177 169 149 147 161 176 198 182 157 147 137 144 156 152
235 232 232 231 228 225 225 227 228 227 224 222 224 225 224 221 219 220 220 222 224 226 227 227 225 221 218 216 215 215 213 213 215 218 222 227 232 236 240 240 238 226 211 210 208 200 199 201 206 199 178 171 179 180 178 173 169 157 141 140 136 126 126 126 118 121 131 132 138 156 164 180 182 159 147 174 184 187 156 136 135 130 127 119 118
244 243 241 235 232 230 228 227 229 230 227 224 223 224 224 222 219 219 220 221 224 225 225 225 224 220 218 216 215 215 214 214 215 220 225 229 233 234 237 237 237 232 216 212 209 202 204 201 200 197 182 178 184 185 183 177 172 161 150 142 131 127 131 127 114 116 120 124 134 149 161 176 182 164 148 174 186 187 154 131 127 125 119 114 119
258 250 242 237 233 233 232 229 229 229 230 228 224 223 223 221 220 220 222 223 224 225 224 224 223 219 218 216 214 215 215 216 218 223 228 231 233 232 232 233 234 231 220 214 208 204 206 203 202 198 185 185 190 191 187 183 185 175 163 149 145 152 155 144 124 122 121 121 131 143 158 172 182 168 148 178 193 176 152 137 136 132 127 125 122
257 249 245 243 236 233 234 232 228 227 229 230 228 226 222 221 222 221 222 223 224 224 223 223 221 218 217 216 214 215 216 217 221 225 229 232 232 232 232 232 232 230 222 215 209 207 208 207 208 200 187 191 197 197 190 190 201 193 176 172 177 179 193 202 147 139 142 130 137 143 157 169 185 174 149 176 197 170 155 149 147 141 136 137 129
250 252 254 250 241 234 233 232 229 227 227 229 229 227 224 223 223 221 221 221 222 222 222 221 220 218 217 217 216 217 218 219 222 226 229 231 231 231 232 232 231 229 224 217 212 211 212 213 212 200 190 194 199 204 200 199 204 197 188 190 200 198 203 232 215 178 180 171 170 162 171 173 184 181 156 168 190 174 161 157 156 159 154 147 139
248 252 255 250 245 240 234 231 231 230 228 227 228 227 226 225 225 224 223 223 223 222 222 221 220 219 218 218 218 219 220 221 223 226 228 229 230 230 230 231 231 229 225 218 215 214 214 217 214 201 194 198 201 207 208 208 206 198 201 203 207 210 209 229 238 226 213 210 208 192 192 183 186 188 166 159 181 181 170 176 178 178 178 168 165
254 256 254 249 249 245 236 232 232 234 231 227 226 227 226 225 224 225 224 225 225 225 225 224 223 222 220 221 221 221 222 222 223 225 228 229 230 229 227 228 229 228 225 220 217 217 216 218 217 206 200 203 203 208 210 211 209 203 207 210 210 214 216 229 244 245 235 231 236 228 219 205 193 195 179 160 169 186 181 186 186 183 186 185 185
320 304 288 263 253 245 237 236 236 237 235 229 227 227 226 224 224 225 226 227 227 228 227 227 227 226 224 224 225 225 224 224 223 225 228 229 228 227 226 226 228 228 226 222 218 219 219 219 218 211 206 207 207 209 211 213 213 209 208 211 214 218 222 230 245 255 254 250 252 244 233 222 200 195 191 170 162 176 188 190 188 191 194 193 194
17 7 353 315 270 251 245 243 241 239 235 232 230 229 227 226 226 226 227 228 227 228 228 229 230 229 229 228 227 227 227 226 225 225 227 227 226 225 225 226 228 228 227 223 219 220 221 221 219 214 210 210 210 212 213 215 215 213 211 210 214 220 226 231 241 252 259 260 257 250 235 223 209 196 193 185 171 167 176 182 182 190 197 201 203
24 21 15 359 302 269 259 251 244 239 236 234 234 232 230 229 228 227 226 227 228 228 229 230 230 230 230 230 229 228 228 228 227 226 226 225 224 225 226 227 229 229 227 223 220 220 222 223 221 217 213 211 212 214 214 216 217 215 212 211 215 221 226 231 240 249 256 258 256 252 239 220 214 203 196 199 190 176 167 168 183 194 192 196 208
22 24 26 25 9 296 267 262 251 241 238 238 237 235 234 231 229 230 229 229 229 230 231 229 230 230 229 228 229 229 229 230 229 227 225 224 224 225 227 229 231 230 227 222 219 220 221 219 219 217 215 212 212 214 213 214 217 216 213 212 216 221 227 230 236 245 252 254 253 247 239 224 215 208 202 203 203 192 179 179 195 196 189 190 201
24 27 29 31 29 17 300 283 261 246 243 240 238 237 236 232 231 233 234 233 231 231 231 230 229 229 230 230 230 230 230 230 229 226 224 225 225 225 228 231 231 229 225 221 218 219 218 215 215 214 214 213 213 213 213 212 214 215 213 213 216 220 227 230 232 239 246 251 249 240 234 228 219 211 206 205 206 204 198 201 206 196 189 188 186
31 30 30 34 40 47 45 31 342 247 241 237 236 235 236 234 233 235 238 238 234 232 232 231 231 230 230 230 229 229 229 228 228 226 225 225 226 226 230 232 230 226 223 221 219 218 217 216 215 213 212 213 213 213 214 215 213 213 212 212 215 220 225 228 229 233 241 246 246 241 235 228 222 214 210 208 208 210 210 214 214 198 192 185 175
38 37 36 40 46 52 54 54 54 47 2 228 229 227 232 233 233 237 240 241 237 234 233 232 232 231 230 229 228 228 227 227 227 227 227 227 228 229 232 232 228 224 222 220 220 219 218 218 217 217 213 209 208 209 212 214 214 212 211 212 215 219 224 227 228 230 235 240 241 241 239 230 223 218 214 213 211 212 212 215 218 205 195 186 176
43 45 45 45 48 51 54 53 49 43 44 50 197 184 181 205 221 231 236 240 237 234 233 232 232 231 232 231 229 228 227 227 227 227 228 228 230 232 232 229 226 224 223 221 222 222 222 219 217 218 217 212 206 205 206 209 211 210 209 212 214 219 223 224 227 232 232 233 234 236 239 236 231 224 219 218 217 216 217 219 220 209 198 193 187
43 49 51 51 51 53 55 56 55 51 48 50 55 65 88 123 154 173 196 211 218 226 227 229 231 233 234 234 233 232 229 228 227 227 228 230 232 233 232 228 226 226 224 224 224 224 223 222 218 215 217 216 210 205 205 206 206 205 206 209 213 217 222 224 225 229 230 230 230 230 231 235 239 235 226 223 223 223 224 224 220 209 203 202 202
39 46 51 54 55 55 57 59 60 63 63 62 59 53 52 62 80 89 90 100 125 176 204 220 229 234 237 238 238 237 234 232 231 230 230 231 232 233 233 229 228 227 225 224 224 222 222 222 221 216 214 216 218 213 207 204 200 199 200 201 207 214 218 222 223 225 226 227 227 225 226 230 236 239 236 229 228 230 230 228 222 216 215 217 219
41 44 49 51 51 52 55 56 56 62 69 68 65 63 58 51 47 46 44 43 43 51 45 4 295 260 249 246 244 242 240 238 236 235 234 234 235 235 234 232 229 227 226 225 224 224 224 222 221 218 214 213 217 215 209 202 190 183 189 192 197 208 215 218 219 222 225 224 223 224 228 229 231 236 240 237 233 233 233 232 229 225 225 224 223
43 45 47 49 50 51 52 52 53 59 65 65 64 64 63 60 59 59 58 48 34 25 13 0 353 343 328 306 282 265 254 248 244 243 241 240 240 238 235 233 230 229 229 230 230 229 228 227 224 220 217 214 211 210 207 199 182 169 175 189 196 200 207 213 220 226 224 221 223 227 230 229 229 232 236 238 236 236 235 234 232 231 230 225 220
42 44 46 48 51 53 52 51 54 59 61 64 65 62 60 61 62 64 70 71 64 54 34 0 338 334 330 325 321 311 290 268 257 253 250 247 244 240 237 235 233 232 232 233 234 232 229 228 225 219 218 217 214 208 201 194 183 179 177 172 193 207 210 214 222 226 222 221 224 228 231 230 230 230 232 235 235 236 236 235 232 231 232 230 224
43 44 45 47 49 51 52 53 55 59 62 65 68 67 66 67 64 62 65 63 57 53 51 39 5 344 333 327 322 315 308 296 280 267 261 259 255 248 242 240 238 236 234 233 233 232 229 228 226 222 217 215 216 211 204 200 192 181 173 170 194 200 223 226 223 221 218 220 223 226 231 233 232 232 231 233 233 233 235 235 233 230 232 233 231
46 45 45 46 47 49 51 53 55 58 63 66 70 74 77 78 74 72 72 66 59 57 59 57 50 41 24 6 351 336 326 312 300 287 275 270 267 261 254 248 245 242 239 236 234 233 231 229 228 225 218 210 211 212 209 207 201 189 173 136 156 158 232 228 217 216 215 219 225 227 230 231 230 229 230 231 232 232 231 232 233 232 232 234 233
47 46 47 47 48 50 52 54 55 58 63 67 71 77 80 80 80 78 74 68 61 55 51 50 51 47 36 23 15 5 354 337 318 305 292 283 276 271 268 262 256 251 246 242 240 240 238 233 231 228 222 215 214 214 211 209 210 209 200 169 135 188 234 200 190 212 213 216 224 226 228 229 228 228 230 232 231 230 228 228 230 231 232 234 232
48 49 51 53 52 53 55 55 56 57 61 67 73 77 77 74 72 68 60 54 50 44 40 41 41 34 24 18 17 13 7 1 344 326 311 300 290 280 276 273 269 264 257 251 246 246 244 240 237 232 228 225 221 218 214 212 214 217 214 213 217 217 187 157 145 204 214 216 222 222 225 227 228 230 232 233 231 229 227 226 227 227 229 232 231
49 54 56 57 57 57 57 56 55 55 58 64 71 76 76 73 70 65 58 51 46 41 41 43 39 31 23 15 11 8 8 10 6 354 338 319 306 296 287 281 278 275 270 262 254 251 251 249 245 239 236 233 227 222 220 218 218 220 221 225 231 237 211 180 174 160 189 224 224 220 223 225 226 230 232 233 232 230 228 226 226 225 225 229 229
52 56 57 58 60 59 59 58 56 55 56 60 66 70 72 72 70 67 61 55 49 45 43 43 42 39 37 29 17 8 359 359 3 5 2 350 332 315 304 295 287 282 279 274 265 259 257 256 252 246 241 238 232 229 228 224 222 224 224 227 235 243 237 218 209 196 164 193 221 220 223 224 225 229 232 234 233 232 230 227 226 224 223 225 227
55 57 59 61 62 62 62 61 58 56 55 58 62 66 68 69 67 65 61 56 52 48 45 43 40 37 37 33 29 24 14 360 352 352 354 355 351 340 325 312 302 293 287 283 278 270 263 259 257 254 248 244 239 237 235 231 229 229 228 230 235 241 242 238 226 212 197 192 205 213 217 218 226 231 231 232 232 232 232 230 228 227 226 226 226
56 59 61 62 63 62 62 61 59 57 55 56 60 63 66 66 63 61 58 54 51 49 47 43 37 33 30 26 23 24 24 19 10 358 350 346 340 338 338 331 322 312 300 293 287 280 273 267 263 260 257 253 248 244 241 239 238 236 234 232 233 235 235 238 229 219 220 221 209 202 200 197 213 228 227 227 228 228 229 229 229 229 228 227 228
57 59 60 61 62 63 63 62 59 58 56 56 59 62 64 64 61 59 57 53 51 49 46 42 37 34 31 26 21 18 17 17 16 11 2 354 340 327 326 330 331 327 317 309 300 292 285 279 274 269 264 261 257 252 247 244 243 242 241 238 235 232 228 228 224 218 218 219 206 199 202 202 210 225 225 225 225 225 226 227 228 229 228 227 228